| time (UTC) | temp F | wind direction | speed MPH | gust MPH | rain 1hr in | rain 24hr in | rain mn in | humidity % | barometer mb |
| 20260507114003 | 58 | 275 | 1.0 | 2.0 | 0.00 | 0.00 | 0.00 | 70 | 1017.3 |
| 20260507113503 | 58 | 271 | 2.0 | 3.0 | 0.00 | 0.00 | 0.00 | 70 | 1017.3 |
| 20260507113003 | 57 | 247 | 3.0 | 4.0 | 0.00 | 0.00 | 0.00 | 70 | 1017.2 |
| 20260507112503 | 58 | 246 | 3.0 | 2.0 | 0.00 | 0.00 | 0.00 | 70 | 1017.2 |
| 20260507112003 | 58 | 246 | 1.0 | 1.0 | 0.00 | 0.00 | 0.00 | 70 | 1017.3 |
| 20260507111504 | 58 | 241 | 3.0 | 4.0 | 0.00 | 0.00 | 0.00 | 70 | 1017.2 |
| 20260507111003 | 58 | 240 | 4.0 | 6.0 | 0.00 | 0.00 | 0.00 | 69 | 1017.2 |
| 20260507110503 | 58 | 288 | 2.0 | 4.0 | 0.00 | 0.00 | 0.00 | 69 | 1017.3 |
| 20260507110003 | 58 | 256 | 2.0 | 5.0 | 0.00 | 0.00 | 0.00 | 71 | 1017.3 |
| 20260507105503 | 58 | 121 | 1.0 | 1.0 | 0.00 | 0.00 | 0.00 | 69 | 1017.3 |
| 20260507105003 | 58 | 121 | 2.0 | 5.0 | 0.00 | 0.00 | 0.00 | 70 | 1017.3 |
| 20260507104504 | 58 | 129 | 2.0 | 2.0 | 0.00 | 0.00 | 0.00 | 69 | 1017.3 |
| 20260507104003 | 58 | 139 | 4.0 | 5.0 | 0.00 | 0.00 | 0.00 | 68 | 1017.4 |
| 20260507103503 | 59 | 136 | 3.0 | 8.0 | 0.00 | 0.00 | 0.00 | 67 | 1017.4 |
| 20260507103003 | 59 | 91 | 3.0 | 4.0 | 0.00 | 0.00 | 0.00 | 67 | 1017.4 |
| 20260507102503 | 59 | 70 | 2.0 | 6.0 | 0.00 | 0.00 | 0.00 | 67 | 1017.4 |
| 20260507102003 | 59 | 314 | 2.0 | 2.0 | 0.00 | 0.00 | 0.00 | 67 | 1017.5 |
| 20260507101503 | 59 | 272 | 3.0 | 5.0 | 0.00 | 0.00 | 0.00 | 70 | 1017.5 |
| 20260507101003 | 58 | 258 | 2.0 | 5.0 | 0.00 | 0.00 | 0.00 | 70 | 1017.4 |
| 20260507100503 | 58 | 226 | 1.0 | 4.0 | 0.00 | 0.00 | 0.00 | 72 | 1017.4 |
| 20260507100003 | 57 | 209 | 1.0 | 1.0 | 0.00 | 0.00 | 0.00 | 74 | 1017.4 |
| 20260507095503 | 56 | 210 | 2.0 | 5.0 | 0.00 | 0.00 | 0.00 | 73 | 1017.3 |
| 20260507095003 | 56 | 211 | 1.0 | 5.0 | 0.00 | 0.00 | 0.00 | 73 | 1017.3 |
| 20260507094503 | 55 | 211 | 2.0 | 2.0 | 0.00 | 0.00 | 0.00 | 76 | 1017.3 |
| 20260507094003 | 55 | 209 | 2.0 | 0.0 | 0.00 | 0.00 | 0.00 | 76 | 1017.3 |
| 20260507093503 | 55 | 210 | 3.0 | 5.0 | 0.00 | 0.00 | 0.00 | 76 | 1017.3 |
| 20260507093003 | 55 | 218 | 4.0 | 4.0 | 0.00 | 0.00 | 0.00 | 79 | 1017.2 |
| 20260507092503 | 55 | 218 | 4.0 | 5.0 | 0.00 | 0.00 | 0.00 | 79 | 1017.2 |
| 20260507092003 | 55 | 230 | 4.0 | 5.0 | 0.00 | 0.00 | 0.00 | 81 | 1017.2 |
| 20260507091503 | 55 | 238 | 3.0 | 5.0 | 0.00 | 0.00 | 0.00 | 84 | 1017.2 |
| 20260507091003 | 55 | 208 | 4.0 | 5.0 | 0.00 | 0.00 | 0.00 | 83 | 1017.2 |
| 20260507090503 | 55 | 197 | 5.0 | 6.0 | 0.00 | 0.00 | 0.00 | 83 | 1017.1 |
| 20260507090004 | 55 | 217 | 4.0 | 8.0 | 0.00 | 0.00 | 0.00 | 83 | 1017.0 |
| 20260507085503 | 55 | 205 | 3.0 | 7.0 | 0.00 | 0.00 | 0.00 | 82 | 1017.0 |
| 20260507085003 | 55 | 180 | 3.0 | 3.0 | 0.00 | 0.00 | 0.00 | 79 | 1017.0 |
| 20260507084503 | 55 | 180 | 1.0 | 4.0 | 0.00 | 0.00 | 0.00 | 81 | 1017.0 |
| 20260507084003 | 55 | 180 | 2.0 | 2.0 | 0.00 | 0.00 | 0.00 | 82 | 1016.9 |
| 20260507083503 | 55 | 185 | 2.0 | 3.0 | 0.00 | 0.00 | 0.00 | 83 | 1016.9 |
| 20260507083004 | 55 | 186 | 2.0 | 5.0 | 0.00 | 0.00 | 0.00 | 83 | 1016.9 |
| 20260507082503 | 54 | 193 | 1.0 | 3.0 | 0.00 | 0.00 | 0.00 | 85 | 1016.9 |
| 20260507082003 | 54 | 200 | 2.0 | 2.0 | 0.00 | 0.00 | 0.00 | 86 | 1016.8 |
| 20260507081503 | 54 | 220 | 1.0 | 1.0 | 0.00 | 0.00 | 0.00 | 88 | 1016.9 |
| 20260507081003 | 53 | 220 | 2.0 | 4.0 | 0.00 | 0.00 | 0.00 | 89 | 1016.9 |
| 20260507080503 | 53 | 220 | 1.0 | 4.0 | 0.00 | 0.00 | 0.00 | 90 | 1016.8 |
| 20260507080003 | 53 | 220 | 1.0 | 2.0 | 0.00 | 0.00 | 0.00 | 91 | 1016.7 |
| 20260507075524 | 53 | 220 | 1.0 | 2.0 | 0.00 | 0.00 | 0.00 | 91 | 1016.7 |
| 20260507075003 | 52 | 220 | 1.0 | 2.0 | 0.00 | 0.00 | 0.00 | 91 | 1016.6 |
| 20260507074503 | 52 | 299 | 2.0 | 3.0 | 0.00 | 0.00 | 0.00 | 92 | 1016.7 |
| 20260507074003 | 52 | 306 | 1.0 | 2.0 | 0.00 | 0.00 | 0.00 | 92 | 1016.7 |
| 20260507073524 | 52 | 306 | 1.0 | 1.0 | 0.00 | 0.00 | 0.00 | 92 | 1016.7 |
| 20260507073024 | 51 | 306 | 1.0 | 2.0 | 0.00 | 0.00 | 0.00 | 92 | 1016.7 |
| 20260507072503 | 51 | 306 | 2.0 | 3.0 | 0.00 | 0.00 | 0.00 | 92 | 1016.6 |
| 20260507072024 | 51 | 306 | 2.0 | 4.0 | 0.00 | 0.00 | 0.00 | 93 | 1016.6 |
| 20260507071504 | 51 | 307 | 2.0 | 2.0 | 0.00 | 0.00 | 0.00 | 93 | 1016.5 |
| 20260507071003 | 51 | 307 | 2.0 | 3.0 | 0.00 | 0.00 | 0.00 | 93 | 1016.5 |
| 20260507070503 | 51 | 307 | 2.0 | 4.0 | 0.00 | 0.00 | 0.00 | 93 | 1016.4 |
| 20260507070005 | 50 | 307 | 1.0 | 3.0 | 0.00 | 0.00 | 0.00 | 93 | 1016.4 |
| 20260507065524 | 50 | 310 | 2.0 | 2.0 | 0.00 | 0.00 | 0.00 | 94 | 1016.4 |
| 20260507065003 | 50 | 316 | 2.0 | 3.0 | 0.00 | 0.00 | 0.00 | 93 | 1016.4 |
| 20260507064503 | 50 | 316 | 2.0 | 3.0 | 0.00 | 0.00 | 0.00 | 93 | 1016.5 |
| 20260507064003 | 50 | 316 | 2.0 | 4.0 | 0.00 | 0.00 | 0.00 | 94 | 1016.4 |
| 20260507063524 | 50 | 316 | 2.0 | 4.0 | 0.00 | 0.00 | 0.00 | 94 | 1016.4 |
| 20260507063003 | 50 | 317 | 2.0 | 4.0 | 0.00 | 0.00 | 0.00 | 94 | 1016.3 |
| 20260507062503 | 50 | 318 | 2.0 | 4.0 | 0.00 | 0.00 | 0.00 | 94 | 1016.3 |
| 20260507062004 | 50 | 320 | 2.0 | 2.0 | 0.00 | 0.00 | 0.00 | 94 | 1016.3 |
| 20260507061503 | 49 | 320 | 1.0 | 2.0 | 0.00 | 0.00 | 0.00 | 94 | 1016.4 |
| 20260507061003 | 49 | 320 | 1.0 | 1.0 | 0.00 | 0.00 | 0.00 | 94 | 1016.3 |
| 20260507060503 | 49 | 320 | 1.0 | 2.0 | 0.00 | 0.00 | 0.00 | 94 | 1016.3 |
| 20260507060003 | 49 | 0 | 0.0 | 0.0 | 0.00 | 0.00 | 0.00 | 94 | 1016.2 |
| 20260507055503 | 49 | 0 | 0.0 | 0.0 | 0.00 | 0.00 | 0.00 | 94 | 1016.1 |
| 20260507055003 | 49 | 0 | 0.0 | 0.0 | 0.00 | 0.00 | 0.00 | 94 | 1016.0 |
| 20260507054503 | 49 | 0 | 0.0 | 0.0 | 0.00 | 0.00 | 0.00 | 94 | 1016.1 |
| 20260507054003 | 48 | 0 | 0.0 | 0.0 | 0.00 | 0.00 | 0.00 | 94 | 1016.0 |
| 20260507053503 | 48 | 0 | 0.0 | 0.0 | 0.00 | 0.00 | 0.00 | 94 | 1016.0 |
| 20260507053004 | 48 | 0 | 0.0 | 0.0 | 0.00 | 0.00 | 0.00 | 94 | 1015.9 |
| 20260507052503 | 48 | 0 | 0.0 | 0.0 | 0.00 | 0.00 | 0.00 | 94 | 1015.8 |
| 20260507052003 | 48 | 0 | 0.0 | 0.0 | 0.00 | 0.00 | 0.00 | 94 | 1015.8 |
| 20260507051504 | 48 | 0 | 0.0 | 0.0 | 0.00 | 0.00 | 0.00 | 93 | 1015.7 |
| 20260507051003 | 48 | 0 | 0.0 | 0.0 | 0.00 | 0.00 | 0.00 | 93 | 1015.6 |
| 20260507050503 | 48 | 0 | 0.0 | 0.0 | 0.00 | 0.00 | 0.00 | 93 | 1015.6 |
| 20260507050003 | 48 | 0 | 0.0 | 0.0 | 0.00 | 0.00 | 0.00 | 93 | 1015.5 |
| 20260507045503 | 48 | 0 | 0.0 | 0.0 | 0.00 | 0.00 | 0.00 | 93 | 1015.5 |
| 20260507045003 | 48 | 0 | 0.0 | 0.0 | 0.00 | 0.00 | 0.00 | 93 | 1015.5 |
| 20260507044503 | 48 | 0 | 0.0 | 0.0 | 0.00 | 0.00 | 0.00 | 93 | 1015.5 |
| 20260507044003 | 48 | 0 | 0.0 | 0.0 | 0.00 | 0.00 | 0.00 | 93 | 1015.4 |
| 20260507043503 | 48 | 0 | 0.0 | 0.0 | 0.00 | 0.00 | 0.00 | 93 | 1015.4 |
| 20260507043003 | 48 | 0 | 0.0 | 0.0 | 0.00 | 0.00 | 0.00 | 93 | 1015.4 |
| 20260507042503 | 49 | 0 | 0.0 | 0.0 | 0.00 | 0.00 | 0.00 | 93 | 1015.4 |
| 20260507042003 | 49 | 0 | 0.0 | 0.0 | 0.00 | 0.00 | 0.00 | 93 | 1015.4 |
| 20260507041503 | 49 | 320 | 0.0 | 0.0 | 0.00 | 0.00 | 0.00 | 93 | 1015.4 |
| 20260507041003 | 49 | 320 | 0.0 | 0.0 | 0.00 | 0.00 | 0.00 | 93 | 1015.4 |
| 20260507040503 | 49 | 320 | 0.0 | 1.0 | 0.00 | 0.00 | 0.00 | 93 | 1015.3 |
| 20260507040003 | 49 | 320 | 1.0 | 1.0 | 0.00 | 0.00 | 0.00 | 93 | 1015.4 |
| 20260507035504 | 49 | 320 | 1.0 | 2.0 | 0.00 | 0.00 | 0.00 | 92 | 1015.3 |
| 20260507035003 | 49 | 320 | 1.0 | 2.0 | 0.00 | 0.00 | 0.00 | 92 | 1015.3 |
| 20260507034503 | 49 | 320 | 0.0 | 2.0 | 0.00 | 0.00 | 0.00 | 92 | 1015.3 |
| 20260507034003 | 49 | 0 | 0.0 | 0.0 | 0.00 | 0.00 | 0.00 | 92 | 1015.3 |
| 20260507033503 | 49 | 0 | 0.0 | 0.0 | 0.00 | 0.00 | 0.00 | 92 | 1015.2 |
| 20260507033005 | 49 | 0 | 0.0 | 0.0 | 0.00 | 0.00 | 0.00 | 92 | 1015.2 |
| 20260507032503 | 49 | 0 | 0.0 | 0.0 | 0.00 | 0.00 | 0.00 | 92 | 1015.2 |
| 20260507032003 | 49 | 0 | 0.0 | 0.0 | 0.00 | 0.00 | 0.00 | 92 | 1015.1 |
| 20260507031503 | 49 | 0 | 0.0 | 0.0 | 0.00 | 0.00 | 0.00 | 92 | 1015.1 |
| 20260507031004 | 49 | 0 | 0.0 | 0.0 | 0.00 | 0.00 | 0.00 | 92 | 1015.1 |
| 20260507030503 | 49 | 0 | 0.0 | 0.0 | 0.00 | 0.00 | 0.00 | 92 | 1015.0 |
| 20260507030003 | 49 | 320 | 0.0 | 1.0 | 0.00 | 0.00 | 0.00 | 92 | 1015.0 |
| 20260507025503 | 49 | 320 | 0.0 | 1.0 | 0.00 | 0.00 | 0.00 | 92 | 1015.0 |
| 20260507025003 | 49 | 0 | 0.0 | 0.0 | 0.00 | 0.00 | 0.00 | 92 | 1014.9 |
| 20260507024503 | 49 | 320 | 0.0 | 0.0 | 0.00 | 0.00 | 0.00 | 91 | 1015.0 |
| 20260507024003 | 49 | 320 | 0.0 | 0.0 | 0.00 | 0.00 | 0.00 | 91 | 1014.9 |
| 20260507023503 | 49 | 320 | 0.0 | 0.0 | 0.00 | 0.00 | 0.00 | 91 | 1014.9 |
| 20260507023003 | 49 | 0 | 0.0 | 0.0 | 0.00 | 0.00 | 0.00 | 91 | 1014.9 |
| 20260507022503 | 49 | 0 | 0.0 | 0.0 | 0.00 | 0.00 | 0.00 | 91 | 1015.0 |
| 20260507022003 | 49 | 0 | 0.0 | 0.0 | 0.00 | 0.00 | 0.00 | 91 | 1015.0 |
| 20260507021503 | 49 | 0 | 0.0 | 0.0 | 0.00 | 0.00 | 0.00 | 91 | 1015.0 |
| 20260507021003 | 49 | 320 | 1.0 | 2.0 | 0.00 | 0.00 | 0.00 | 91 | 1014.9 |
| 20260507020503 | 49 | 320 | 1.0 | 2.0 | 0.00 | 0.00 | 0.00 | 91 | 1014.9 |
| 20260507020003 | 49 | 320 | 0.0 | 0.0 | 0.00 | 0.00 | 0.00 | 91 | 1014.8 |
| 20260507015503 | 49 | 320 | 1.0 | 3.0 | 0.00 | 0.00 | 0.00 | 91 | 1014.8 |
| 20260507015004 | 49 | 320 | 0.0 | 2.0 | 0.00 | 0.00 | 0.00 | 91 | 1014.8 |
| 20260507014524 | 49 | 320 | 0.0 | 1.0 | 0.00 | 0.00 | 0.00 | 90 | 1014.8 |
| 20260507014003 | 49 | 320 | 0.0 | 0.0 | 0.00 | 0.00 | 0.00 | 90 | 1014.7 |
| 20260507013503 | 49 | 320 | 0.0 | 2.0 | 0.00 | 0.00 | 0.00 | 90 | 1014.8 |
| 20260507013003 | 49 | 0 | 0.0 | 0.0 | 0.00 | 0.00 | 0.00 | 90 | 1014.7 |
| 20260507012503 | 49 | 0 | 0.0 | 0.0 | 0.00 | 0.00 | 0.00 | 90 | 1014.8 |
| 20260507012003 | 49 | 320 | 0.0 | 0.0 | 0.00 | 0.00 | 0.00 | 91 | 1014.8 |
| 20260507011503 | 49 | 320 | 0.0 | 1.0 | 0.00 | 0.00 | 0.00 | 91 | 1014.7 |
| 20260507011003 | 49 | 320 | 0.0 | 1.0 | 0.00 | 0.00 | 0.00 | 91 | 1014.7 |
| 20260507010524 | 49 | 320 | 1.0 | 4.0 | 0.00 | 0.00 | 0.00 | 90 | 1014.7 |
| 20260507010003 | 49 | 321 | 1.0 | 0.0 | 0.00 | 0.00 | 0.00 | 90 | 1014.7 |
| 20260507005524 | 49 | 321 | 0.0 | 1.0 | 0.00 | 0.00 | 0.00 | 90 | 1014.6 |
| 20260507005003 | 49 | 321 | 1.0 | 4.0 | 0.00 | 0.00 | 0.00 | 90 | 1014.6 |
| 20260507004524 | 49 | 320 | 2.0 | 4.0 | 0.00 | 0.00 | 0.00 | 90 | 1014.7 |
| 20260507004003 | 49 | 320 | 2.0 | 4.0 | 0.00 | 0.00 | 0.00 | 90 | 1014.7 |
| 20260507003503 | 49 | 315 | 2.0 | 5.0 | 0.00 | 0.00 | 0.00 | 90 | 1014.6 |
| 20260507003003 | 49 | 313 | 2.0 | 6.0 | 0.00 | 0.00 | 0.00 | 90 | 1014.7 |
| 20260507002503 | 49 | 311 | 3.0 | 5.0 | 0.00 | 0.00 | 0.00 | 90 | 1014.7 |
| 20260507002003 | 49 | 310 | 3.0 | 5.0 | 0.00 | 0.00 | 0.00 | 90 | 1014.6 |
| 20260507001503 | 49 | 314 | 4.0 | 6.0 | 0.00 | 0.00 | 0.00 | 90 | 1014.7 |
| 20260507001003 | 49 | 318 | 3.0 | 6.0 | 0.00 | 0.00 | 0.00 | 90 | 1014.7 |
| 20260507000503 | 49 | 309 | 3.0 | 5.0 | 0.00 | 0.00 | 0.00 | 90 | 1014.6 |
| 20260507000003 | 49 | 309 | 3.0 | 6.0 | 0.00 | 0.00 | 0.00 | 90 | 1014.6 |
| 20260506235503 | 49 | 305 | 3.0 | 5.0 | 0.00 | 0.00 | 0.00 | 90 | 1014.6 |
| 20260506235003 | 49 | 312 | 4.0 | 6.0 | 0.00 | 0.00 | 0.00 | 90 | 1014.6 |
| 20260506234503 | 49 | 312 | 4.0 | 6.0 | 0.00 | 0.00 | 0.00 | 90 | 1014.6 |
| 20260506234003 | 49 | 319 | 4.0 | 7.0 | 0.00 | 0.00 | 0.00 | 90 | 1014.7 |
| 20260506233503 | 49 | 312 | 4.0 | 7.0 | 0.00 | 0.00 | 0.00 | 90 | 1014.6 |
| 20260506233024 | 49 | 308 | 4.0 | 7.0 | 0.00 | 0.00 | 0.00 | 90 | 1014.6 |
| 20260506232503 | 49 | 316 | 4.0 | 5.0 | 0.00 | 0.00 | 0.00 | 90 | 1014.6 |
| 20260506232003 | 49 | 317 | 3.0 | 5.0 | 0.00 | 0.00 | 0.00 | 90 | 1014.5 |
| 20260506231503 | 49 | 308 | 4.0 | 5.0 | 0.00 | 0.00 | 0.00 | 90 | 1014.4 |
| 20260506231003 | 49 | 300 | 4.0 | 9.0 | 0.00 | 0.00 | 0.00 | 90 | 1014.4 |
| 20260506230503 | 48 | 319 | 3.0 | 6.0 | 0.00 | 0.00 | 0.00 | 90 | 1014.4 |
| 20260506230003 | 48 | 311 | 4.0 | 7.0 | 0.00 | 0.00 | 0.00 | 90 | 1014.3 |
| 20260506225503 | 48 | 315 | 3.0 | 5.0 | 0.00 | 0.00 | 0.00 | 90 | 1014.3 |
| 20260506225003 | 48 | 311 | 2.0 | 5.0 | 0.00 | 0.00 | 0.00 | 90 | 1014.3 |
| 20260506224503 | 48 | 297 | 3.0 | 6.0 | 0.00 | 0.00 | 0.00 | 90 | 1014.2 |
| 20260506224003 | 48 | 276 | 2.0 | 6.0 | 0.00 | 0.00 | 0.00 | 90 | 1014.2 |
| 20260506223524 | 48 | 276 | 1.0 | 2.0 | 0.00 | 0.00 | 0.00 | 90 | 1014.2 |
| 20260506223003 | 48 | 274 | 2.0 | 5.0 | 0.00 | 0.00 | 0.00 | 90 | 1014.2 |
| 20260506222503 | 48 | 283 | 2.0 | 5.0 | 0.00 | 0.00 | 0.00 | 90 | 1014.2 |
| 20260506222003 | 48 | 298 | 3.0 | 5.0 | 0.00 | 0.00 | 0.00 | 90 | 1014.2 |
| 20260506221504 | 48 | 302 | 3.0 | 4.0 | 0.00 | 0.00 | 0.00 | 90 | 1014.2 |
| 20260506221003 | 48 | 313 | 5.0 | 7.0 | 0.00 | 0.00 | 0.00 | 90 | 1014.2 |
| 20260506220503 | 48 | 318 | 4.0 | 6.0 | 0.00 | 0.00 | 0.00 | 89 | 1014.2 |
| 20260506220004 | 48 | 323 | 3.0 | 5.0 | 0.00 | 0.09 | 0.00 | 89 | 1014.2 |
| 20260506215503 | 48 | 305 | 3.0 | 6.0 | 0.00 | 0.09 | 0.09 | 89 | 1014.1 |
| 20260506215004 | 48 | 297 | 2.0 | 4.0 | 0.00 | 0.09 | 0.09 | 89 | 1014.2 |
| 20260506214503 | 48 | 298 | 2.0 | 5.0 | 0.00 | 0.09 | 0.09 | 89 | 1014.2 |
| 20260506214003 | 48 | 300 | 2.0 | 4.0 | 0.00 | 0.09 | 0.09 | 88 | 1014.2 |
| 20260506213503 | 48 | 299 | 2.0 | 3.0 | 0.00 | 0.09 | 0.09 | 88 | 1014.2 |
| 20260506213003 | 48 | 290 | 2.0 | 4.0 | 0.00 | 0.09 | 0.09 | 88 | 1014.1 |
| 20260506212503 | 48 | 279 | 2.0 | 7.0 | 0.00 | 0.09 | 0.09 | 88 | 1014.2 |
| 20260506212003 | 48 | 292 | 2.0 | 5.0 | 0.00 | 0.09 | 0.09 | 88 | 1014.2 |
| 20260506211503 | 48 | 300 | 2.0 | 4.0 | 0.00 | 0.09 | 0.09 | 88 | 1014.2 |
| 20260506211003 | 48 | 289 | 2.0 | 2.0 | 0.00 | 0.09 | 0.09 | 88 | 1014.1 |
| 20260506210503 | 48 | 307 | 1.0 | 2.0 | 0.00 | 0.09 | 0.09 | 88 | 1014.1 |
| 20260506210003 | 48 | 307 | 2.0 | 2.0 | 0.00 | 0.09 | 0.09 | 87 | 1014.1 |
| 20260506205524 | 48 | 301 | 2.0 | 5.0 | 0.00 | 0.09 | 0.09 | 87 | 1014.1 |
| 20260506205024 | 48 | 296 | 2.0 | 4.0 | 0.00 | 0.09 | 0.09 | 87 | 1014.0 |
| 20260506204503 | 48 | 287 | 3.0 | 5.0 | 0.00 | 0.09 | 0.09 | 87 | 1014.0 |
| 20260506204003 | 49 | 294 | 3.0 | 5.0 | 0.00 | 0.09 | 0.09 | 87 | 1014.0 |
| 20260506203524 | 49 | 287 | 2.0 | 2.0 | 0.00 | 0.09 | 0.09 | 86 | 1014.0 |
| 20260506203003 | 49 | 285 | 2.0 | 2.0 | 0.00 | 0.09 | 0.09 | 86 | 1013.9 |
| 20260506202503 | 49 | 293 | 3.0 | 7.0 | 0.00 | 0.09 | 0.09 | 86 | 1013.9 |
| 20260506202003 | 49 | 308 | 2.0 | 6.0 | 0.00 | 0.09 | 0.09 | 86 | 1013.8 |
| 20260506201524 | 49 | 303 | 4.0 | 6.0 | 0.00 | 0.09 | 0.09 | 86 | 1013.7 |
| 20260506201003 | 49 | 311 | 4.0 | 5.0 | 0.00 | 0.09 | 0.09 | 85 | 1013.7 |
| 20260506200524 | 50 | 312 | 2.0 | 5.0 | 0.00 | 0.09 | 0.09 | 85 | 1013.7 |
| 20260506200003 | 50 | 313 | 3.0 | 7.0 | 0.00 | 0.09 | 0.09 | 85 | 1013.7 |
| 20260506195503 | 50 | 322 | 3.0 | 7.0 | 0.00 | 0.09 | 0.09 | 84 | 1013.6 |
| 20260506195003 | 50 | 313 | 4.0 | 6.0 | 0.00 | 0.09 | 0.09 | 84 | 1013.5 |
| 20260506194503 | 50 | 322 | 3.0 | 5.0 | 0.00 | 0.09 | 0.09 | 84 | 1013.5 |
| 20260506194003 | 50 | 307 | 5.0 | 7.0 | 0.00 | 0.09 | 0.09 | 83 | 1013.5 |
| 20260506193503 | 51 | 320 | 4.0 | 5.0 | 0.00 | 0.09 | 0.09 | 83 | 1013.3 |
| 20260506193003 | 51 | 319 | 4.0 | 7.0 | 0.00 | 0.09 | 0.09 | 83 | 1013.4 |
| 20260506192503 | 51 | 313 | 5.0 | 8.0 | 0.00 | 0.09 | 0.09 | 82 | 1013.2 |
| 20260506192003 | 51 | 311 | 4.0 | 6.0 | 0.00 | 0.09 | 0.09 | 82 | 1013.2 |
| 20260506191524 | 52 | 325 | 4.0 | 4.0 | 0.00 | 0.09 | 0.09 | 82 | 1013.1 |
| 20260506191003 | 52 | 322 | 5.0 | 7.0 | 0.00 | 0.09 | 0.09 | 81 | 1013.0 |
| 20260506190503 | 52 | 318 | 6.0 | 8.0 | 0.00 | 0.09 | 0.09 | 81 | 1013.0 |
| 20260506190004 | 52 | 313 | 6.0 | 10.0 | 0.00 | 0.09 | 0.09 | 80 | 1013.0 |
| 20260506185503 | 53 | 315 | 7.0 | 12.0 | 0.00 | 0.09 | 0.09 | 80 | 1012.9 |
| 20260506185003 | 53 | 316 | 6.0 | 8.0 | 0.00 | 0.09 | 0.09 | 79 | 1012.9 |
| 20260506184503 | 53 | 314 | 9.0 | 11.0 | 0.00 | 0.09 | 0.09 | 79 | 1012.9 |
| 20260506184003 | 54 | 317 | 8.0 | 10.0 | 0.00 | 0.09 | 0.09 | 79 | 1012.9 |
| 20260506183524 | 54 | 318 | 6.0 | 9.0 | 0.00 | 0.09 | 0.09 | 78 | 1012.9 |
| 20260506183003 | 54 | 320 | 7.0 | 11.0 | 0.00 | 0.09 | 0.09 | 78 | 1012.8 |
| 20260506182524 | 54 | 314 | 7.0 | 8.0 | 0.00 | 0.09 | 0.09 | 77 | 1012.8 |
| 20260506182003 | 55 | 314 | 8.0 | 13.0 | 0.00 | 0.09 | 0.09 | 76 | 1012.7 |
| 20260506181524 | 55 | 314 | 8.0 | 11.0 | 0.00 | 0.09 | 0.09 | 76 | 1012.6 |
| 20260506181003 | 56 | 319 | 9.0 | 11.0 | 0.00 | 0.09 | 0.09 | 75 | 1012.6 |
| 20260506180503 | 56 | 317 | 9.0 | 14.0 | 0.00 | 0.09 | 0.09 | 74 | 1012.6 |
| 20260506180004 | 56 | 315 | 8.0 | 11.0 | 0.00 | 0.09 | 0.09 | 74 | 1012.5 |
| 20260506175503 | 56 | 316 | 7.0 | 9.0 | 0.00 | 0.09 | 0.09 | 75 | 1012.5 |
| 20260506175003 | 56 | 310 | 8.0 | 11.0 | 0.00 | 0.09 | 0.09 | 75 | 1012.3 |
| 20260506174504 | 56 | 314 | 7.0 | 9.0 | 0.00 | 0.09 | 0.09 | 75 | 1012.4 |
| 20260506174003 | 56 | 325 | 9.0 | 12.0 | 0.00 | 0.09 | 0.09 | 75 | 1012.3 |
| 20260506173524 | 56 | 324 | 10.0 | 11.0 | 0.00 | 0.09 | 0.09 | 75 | 1012.2 |
| 20260506173024 | 56 | 322 | 11.0 | 15.0 | 0.00 | 0.09 | 0.09 | 74 | 1012.1 |
| 20260506172503 | 56 | 325 | 11.0 | 14.0 | 0.00 | 0.09 | 0.09 | 73 | 1012.0 |
| 20260506172003 | 55 | 322 | 10.0 | 14.0 | 0.00 | 0.09 | 0.09 | 73 | 1012.1 |
| 20260506171503 | 55 | 321 | 10.0 | 11.0 | 0.00 | 0.09 | 0.09 | 75 | 1012.1 |
| 20260506171003 | 55 | 321 | 10.0 | 15.0 | 0.00 | 0.09 | 0.09 | 75 | 1012.1 |
| 20260506170503 | 55 | 322 | 10.0 | 12.0 | 0.00 | 0.09 | 0.09 | 74 | 1012.0 |
| 20260506170004 | 55 | 322 | 10.0 | 13.0 | 0.00 | 0.09 | 0.09 | 74 | 1011.9 |
| 20260506165503 | 55 | 323 | 10.0 | 15.0 | 0.00 | 0.09 | 0.09 | 75 | 1012.0 |
| 20260506165003 | 55 | 325 | 10.0 | 13.0 | 0.00 | 0.09 | 0.09 | 74 | 1012.0 |
| 20260506164503 | 56 | 321 | 11.0 | 15.0 | 0.00 | 0.09 | 0.09 | 75 | 1012.0 |
| 20260506164003 | 56 | 318 | 9.0 | 14.0 | 0.00 | 0.09 | 0.09 | 76 | 1012.0 |
| 20260506163524 | 56 | 321 | 8.0 | 13.0 | 0.00 | 0.09 | 0.09 | 76 | 1012.0 |
| 20260506163003 | 56 | 316 | 9.0 | 15.0 | 0.00 | 0.09 | 0.09 | 75 | 1011.9 |
| 20260506162524 | 56 | 321 | 8.0 | 9.0 | 0.00 | 0.09 | 0.09 | 75 | 1011.9 |
| 20260506162003 | 56 | 323 | 11.0 | 15.0 | 0.00 | 0.09 | 0.09 | 74 | 1011.9 |
| 20260506161503 | 56 | 319 | 10.0 | 14.0 | 0.00 | 0.09 | 0.09 | 75 | 1011.9 |
| 20260506161004 | 56 | 319 | 8.0 | 14.0 | 0.00 | 0.09 | 0.09 | 76 | 1011.9 |
| 20260506160503 | 56 | 319 | 7.0 | 8.0 | 0.00 | 0.09 | 0.09 | 77 | 1011.9 |
| 20260506160003 | 56 | 322 | 7.0 | 11.0 | 0.00 | 0.09 | 0.09 | 78 | 1011.9 |
| 20260506155503 | 56 | 316 | 6.0 | 11.0 | 0.00 | 0.09 | 0.09 | 78 | 1011.8 |
| 20260506155024 | 55 | 318 | 6.0 | 8.0 | 0.00 | 0.09 | 0.09 | 79 | 1011.8 |
| 20260506154503 | 55 | 317 | 6.0 | 9.0 | 0.00 | 0.09 | 0.09 | 79 | 1011.8 |
| 20260506154003 | 55 | 314 | 6.0 | 8.0 | 0.00 | 0.09 | 0.09 | 78 | 1011.8 |
| 20260506153503 | 55 | 319 | 6.0 | 9.0 | 0.00 | 0.09 | 0.09 | 79 | 1011.9 |
| 20260506153003 | 55 | 314 | 7.0 | 8.0 | 0.00 | 0.09 | 0.09 | 78 | 1011.8 |
| 20260506152503 | 56 | 318 | 7.0 | 10.0 | 0.00 | 0.09 | 0.09 | 78 | 1011.8 |
| 20260506152003 | 56 | 317 | 7.0 | 11.0 | 0.00 | 0.09 | 0.09 | 77 | 1011.8 |
| 20260506151503 | 56 | 321 | 5.0 | 7.0 | 0.00 | 0.09 | 0.09 | 78 | 1011.8 |
| 20260506151003 | 56 | 311 | 6.0 | 8.0 | 0.00 | 0.09 | 0.09 | 78 | 1011.8 |
| 20260506150504 | 56 | 318 | 6.0 | 6.0 | 0.00 | 0.09 | 0.09 | 78 | 1011.8 |
| 20260506150004 | 56 | 323 | 7.0 | 12.0 | 0.00 | 0.09 | 0.09 | 77 | 1011.8 |
| 20260506145503 | 56 | 313 | 7.0 | 10.0 | 0.00 | 0.09 | 0.09 | 76 | 1011.8 |
| 20260506145003 | 56 | 316 | 8.0 | 11.0 | 0.00 | 0.09 | 0.09 | 76 | 1011.8 |
| 20260506144503 | 56 | 315 | 9.0 | 13.0 | 0.00 | 0.09 | 0.09 | 76 | 1011.8 |
| 20260506144003 | 56 | 318 | 9.0 | 13.0 | 0.00 | 0.09 | 0.09 | 76 | 1011.8 |
| 20260506143503 | 56 | 317 | 9.0 | 12.0 | 0.00 | 0.09 | 0.09 | 76 | 1011.8 |
| 20260506143003 | 56 | 323 | 10.0 | 12.0 | 0.00 | 0.09 | 0.09 | 75 | 1011.9 |
| 20260506142503 | 56 | 324 | 11.0 | 16.0 | 0.00 | 0.09 | 0.09 | 75 | 1011.8 |
| 20260506142003 | 56 | 315 | 7.0 | 11.0 | 0.00 | 0.09 | 0.09 | 75 | 1011.8 |
| 20260506141503 | 56 | 322 | 11.0 | 12.0 | 0.00 | 0.09 | 0.09 | 74 | 1011.8 |
| 20260506141003 | 57 | 317 | 10.0 | 11.0 | 0.00 | 0.09 | 0.09 | 74 | 1011.8 |
| 20260506140524 | 57 | 328 | 9.0 | 11.0 | 0.00 | 0.09 | 0.09 | 74 | 1011.8 |
| 20260506140024 | 57 | 315 | 8.0 | 14.0 | 0.00 | 0.09 | 0.09 | 74 | 1011.9 |
| 20260506135503 | 57 | 312 | 7.0 | 11.0 | 0.00 | 0.09 | 0.09 | 75 | 1011.7 |
| 20260506135003 | 57 | 320 | 11.0 | 15.0 | 0.00 | 0.09 | 0.09 | 74 | 1011.8 |
| 20260506134503 | 57 | 320 | 10.0 | 16.0 | 0.00 | 0.09 | 0.09 | 74 | 1011.8 |
| 20260506134024 | 57 | 321 | 9.0 | 12.0 | 0.00 | 0.09 | 0.09 | 75 | 1011.8 |
| 20260506133503 | 57 | 319 | 10.0 | 14.0 | 0.00 | 0.09 | 0.09 | 75 | 1011.8 |
| 20260506133003 | 57 | 321 | 11.0 | 14.0 | 0.00 | 0.09 | 0.09 | 74 | 1011.8 |
| 20260506132503 | 57 | 325 | 10.0 | 14.0 | 0.00 | 0.09 | 0.09 | 74 | 1011.8 |
| 20260506132003 | 57 | 324 | 13.0 | 15.0 | 0.00 | 0.09 | 0.09 | 73 | 1011.7 |
| 20260506131503 | 58 | 319 | 10.0 | 15.0 | 0.00 | 0.09 | 0.09 | 73 | 1011.8 |
| 20260506131003 | 58 | 316 | 11.0 | 15.0 | 0.00 | 0.09 | 0.09 | 73 | 1011.7 |
| 20260506130524 | 57 | 325 | 9.0 | 13.0 | 0.00 | 0.09 | 0.09 | 74 | 1011.6 |
| 20260506130004 | 57 | 320 | 9.0 | 12.0 | 0.00 | 0.09 | 0.09 | 76 | 1011.7 |
| 20260506125503 | 56 | 318 | 10.0 | 12.0 | 0.00 | 0.09 | 0.09 | 76 | 1011.6 |
| 20260506125003 | 56 | 320 | 10.0 | 15.0 | 0.00 | 0.09 | 0.09 | 75 | 1011.6 |
| 20260506124524 | 56 | 321 | 10.0 | 13.0 | 0.00 | 0.09 | 0.09 | 76 | 1011.6 |
| 20260506124003 | 56 | 320 | 11.0 | 12.0 | 0.00 | 0.09 | 0.09 | 75 | 1011.6 |
| 20260506123503 | 56 | 316 | 9.0 | 10.0 | 0.00 | 0.09 | 0.09 | 76 | 1011.6 |
| 20260506123003 | 55 | 319 | 9.0 | 11.0 | 0.00 | 0.09 | 0.09 | 77 | 1011.5 |
| 20260506122503 | 55 | 327 | 10.0 | 12.0 | 0.00 | 0.09 | 0.09 | 76 | 1011.5 |
| 20260506122003 | 54 | 327 | 11.0 | 14.0 | 0.00 | 0.09 | 0.09 | 76 | 1011.6 |
| 20260506121503 | 54 | 326 | 10.0 | 15.0 | 0.00 | 0.09 | 0.09 | 76 | 1011.6 |
| 20260506121003 | 54 | 323 | 11.0 | 13.0 | 0.00 | 0.09 | 0.09 | 77 | 1011.5 |
| 20260506120503 | 54 | 324 | 9.0 | 15.0 | 0.00 | 0.09 | 0.09 | 78 | 1011.5 |
| 20260506120003 | 54 | 322 | 10.0 | 13.0 | 0.00 | 0.09 | 0.09 | 77 | 1011.5 |
| 20260506115503 | 54 | 323 | 10.0 | 15.0 | 0.00 | 0.09 | 0.09 | 76 | 1011.5 |
| 20260506115003 | 54 | 337 | 9.0 | 10.0 | 0.00 | 0.09 | 0.09 | 78 | 1011.6 |
| 20260506114503 | 54 | 344 | 11.0 | 13.0 | 0.00 | 0.09 | 0.09 | 77 | 1011.5 |